Regional Weather Roundup
Issued by NWS

Home | Current Version | Previous Version | Graphics & Text | Print | Product List | Glossary On
Versions: 1 2 3 4 5 6 7 8 9 10 11 12 13 14 15 16 17 18 19 20 21 22 23 24 25 26 27 28 29 30 31 32 33 34 35 36 37 38 39 40 41 42 43 44 45 46 47 48 49 50
000
ASUS43 KIND 291459
RWRIN

WEATHER ROUNDUP FOR INDIANA
NATIONAL WEATHER SERVICE INDIANAPOLIS IN
1000 AM EST MON DEC 29 2014

NOTE: "FAIR" INDICATES FEW OR NO CLOUDS BELOW 12,000 FEET WITH NO
SIGNIFICANT WEATHER AND/OR OBSTRUCTIONS TO VISIBILITY.

* - STATION DOES NOT REPORT WEATHER SUCH AS PRECIPITATION OR FOG.

+ - STATION NOT QUALITY CONTROLLED BY THE NATIONAL WEATHER SERVICE.
    USE DATA WITH CAUTION...ESPECIALLY DEWPOINT AND RELATIVE
    HUMIDITY OBSERVATIONS.

INZ001>003-010>013-019-020-291600-
NORTHWEST INDIANA

CITY           SKY/WX    TMP DP  RH WIND       PRES   REMARKS
GARY /AIRPORT/ CLOUDY    34  23  64 N12G23    30.34R WCI  25
VALPARAISO     NOT AVBL

$$

LMZ046-743>745-291600-
SOUTHERN LAKE MICHIGAN

STATION/POSITION TIME  TEMP WIND        PRES
                       AIR  DIR/SP/G
                 (UTC) (F)  (DEG/KT/KT) (MB)
MICHIGAN CITY    1400   32   10/ 18/ 21   N/A

$$

INZ004-005-014>016-021>024-291600-
NORTH CENTRAL INDIANA

CITY           SKY/WX    TMP DP  RH WIND       PRES   REMARKS
ELKHART        MOSUNNY   28  28 100 CALM      30.34R
GOSHEN         CLOUDY    28  24  85 N5        30.32R WCI  23
SOUTH BEND     PTSUNNY   29  23  78 NE7       30.34R WCI  22
WARSAW +       CLOUDY    27  25  93 CALM      30.32R

$$

INZ006>009-017-018-025>027-291600-
NORTHEAST INDIANA

CITY           SKY/WX    TMP DP  RH WIND       PRES   REMARKS
ANGOLA *+      CLOUDY    25  21  86 CALM      30.31R
FORT WAYNE     PTSUNNY   28  25  88 CALM      30.32R

$$

INZ028-029-035-036-043>045-051>053-291600-
WEST CENTRAL INDIANA

CITY           SKY/WX    TMP DP  RH WIND       PRES   REMARKS
GREENCASTLE +  SUNNY     27  21  80 NE3       30.31R
LAFAYETTE      SUNNY     25  22  88 CALM      30.33R
TERRE HAUTE    SUNNY     25  22  88 NE6       30.33R WCI  18

$$

INZ030>032-037>040-046>048-054>057-064-065-291600-
CENTRAL INDIANA

CITY           SKY/WX    TMP DP  RH WIND       PRES   REMARKS
ANDERSON       SUNNY     27  27 100 CALM      30.31R FOG
CP ATTERBURY + SUNNY     30  27  86 MISG      30.31R
COLUMBUS       MOSUNNY   28  25  86 NE6       30.31R FOG     WCI  22
INDIANAPOLIS   MOSUNNY   26  22  84 NE7       30.30R WCI  18
-EAGLE CREEK   SUNNY     28  23  81 NE6       30.30R WCI  22
KOKOMO *+      SUNNY     27  23  86 CALM      30.32R
MT COMFORT *+  SUNNY     28  28 100 NE5       30.30R WCI  23
SHELBYVILLE    SUNNY     30  24  78 NE6       30.30R WCI  24

$$

INZ033-034-041-042-049-050-058-059-291600-
EAST CENTRAL INDIANA

CITY           SKY/WX    TMP DP  RH WIND       PRES   REMARKS
MUNCIE         SUNNY     28  24  85 NE6       30.30R FOG     WCI  22

$$

INZ060-061-067>069-081>083-085>088-291600-
SOUTHWEST INDIANA

CITY           SKY/WX    TMP DP  RH WIND       PRES   REMARKS
EVANSVILLE     CLOUDY    33  26  75 NE12      30.31R WCI  24
HUNTINGBURG *+ CLOUDY    32  25  74 NE7       30.30R WCI  26

$$

INZ062-063-066-070>080-084-089>092-291600-
SOUTH CENTRAL AND SOUTHEAST INDIANA

CITY           SKY/WX    TMP DP  RH WIND       PRES   REMARKS
BLOOMINGTON    SUNNY     28  25  88 E7        30.29R WCI  21
SEYMOUR +      SUNNY     32  27  80 NE8       30.31  WCI  25

$$




USA.gov is the U.S. government's official web portal to all federal, state and local government web resources and services.